Simultaneous Nadir Overpasses (SNOs) Predictions

Prediction of SNOs between NOAA-19 and NPP Satellite Orbit:

Table of predicted SNOs for the next 14.0 days since TLE Epoch: 6/14/2014
Index Date (NOAA-19) Time (NOAA-19) Lat,Lon (NOAA-19) SZA (NOAA-19 ) Date (NPP) Time (NPP) Lat,Lon (NPP) SZA (NPP ) Distance(km) Time Diff (sec)
1 06/16/2014 00:53:32 -81.01, -67.43 118.40 06/16/2014 00:54:37 -81.01, -67.35 118.45 1.38 65
2 06/16/2014 01:44:37 81.01, 99.80 61.60 06/16/2014 01:45:22 81.01, 99.99 61.55 3.31 45
3 06/16/2014 02:35:34 -81.00, -92.34 118.49 06/16/2014 02:36:06 -81.00, -92.36 118.50 0.38 32
4 06/16/2014 03:26:39 81.00, 74.89 61.52 06/16/2014 03:26:51 81.00, 74.98 61.50 1.61 12
5 06/16/2014 04:17:36 -80.99,-117.26 118.58 06/16/2014 04:17:35 -80.99,-117.38 118.56 2.09 1
6 06/16/2014
